{"data":{"norad_id":65666,"intl_designator":"2025-211Q","name":"STARLINK-35181","alt_names":[],"object_type":"PAYLOAD","status":"ACTIVE","operator":null,"country":"US","launch_date":"2025-09-19","launch_site_code":"AFWTR","launch_vehicle":null,"mission":null,"orbit_class":"UNKNOWN","rcs_meters":null,"size_class":null,"mass_kg":null,"dimensions":null,"purposes":["comms"],"wikipedia_slug":null,"has_3d_model":false,"image_url":null,"decayed_at":null,"tle_current":{"epoch":"2026-09-19T13:28:22.249632Z","epoch_age_seconds":189694,"freshness":"STALE","line1":"1 65666U 25211Q   26262.56136863  .00017851  00000+0  55396-3 0  9998","line2":"2 65666  97.2837 302.8684 0000819  87.8857 272.2480 15.33445105 56387","mean_motion":15.33445105,"eccentricity":8.19e-5,"inclination_deg":97.2837,"raan_deg":302.8684,"arg_perigee_deg":87.8857,"mean_anomaly_deg":272.248,"bstar":0.00055396,"rev_number":5638,"period_min":93.90619822677,"perigee_km":464.98236469132,"apogee_km":466.10335945273,"semimajor_km":6843.679862072,"source":"CELESTRAK","updated_at":"2026-09-21T09:00:35.682043Z"}}}